Location: Red Deer
(52.2681°N, 113.8112°W)
Time: 16:04:03
(UTC-06:00)

Envisat - Pass Details

Date: 23 April 2024
Orbit: 762 x 764 km, 98.3° (Epoch: 27 May)

Event Time Altitude Azimuth Distance (km) Brightness Sun altitude
Rises 04:23:01 0° 20° (NNE) 3,241 7.5 -15.4°
Reaches altitude 10° 04:25:31 10° 29° (NNE) 2,309 6.7 -15.2°
Maximum altitude 04:30:13 37° 96° (E) 1,180 4.3 -14.7°
Drops below altitude 10° 04:34:53 10° 163° (SSE) 2,292 5.2 -14.2°
Enters shadow 04:36:44 - 170° (S) 2,983 5.7 -14.0°
